User: anonymous   Login
Location: Unspecified
(0.0000°N, 0.0000°E)
Time: 23:33:05
(UTC+02:00)
Language:

Cosmos 2237 Rocket - Orbit

View from above orbital plane
View from above orbital plane
View from above satellite
View from above satellite

Ground track
Ground track

The orbit data is extracted from the following two-line orbital elements,

1 22566U 93016B   17115.75095287 -.00000113 +00000-0 -33533-4 0  9996
2 22566 071.0077 176.9928 0011835 223.4279 136.5912 14.14950125243855
Epoch (UTC): 25 April 2017 18:01:22
Eccentricity: 0.0011835
inclination: 71.0077°
perigee height: 834 km
apogee height: 851 km
right ascension of ascending node: 176.9928°
argument of perigee: 223.4279°
revolutions per day: 14.14950125
mean anomaly at epoch: 136.5912°
orbit number at epoch: 24385

The dashed part of the orbit path shows where the satellite is in the earth's shadow,  

DLR